Location: Lancaster
(34.6980°N, 118.1360°W)
Time: 12:54:10
(UTC-07:00)

Vanguard 2 - All Passes

Search period start: 18 July 2018 00:00
Search period end: 28 July 2018 00:00
Orbit: 553 x 2939 km, 32.9° (Epoch: 18 July)

Date Brightness Start Highest point End Pass type
(mag) Time Alt. Az. Time Alt. Az. Time Alt. Az.
18 Jul - 02:13:20 10° W 02:26:55 35° SW 02:36:29 10° SSE visible
18 Jul - 15:41:43 10° SSE 15:47:48 15° SE 15:55:00 10° E daylight
18 Jul - 17:44:23 10° SW 17:56:44 47° SE 18:13:05 10° E daylight
18 Jul - 19:52:51 10° WSW 20:08:34 77° SSE 20:26:22 10° E daylight
18 Jul - 22:04:14 10° W 22:22:06 84° S 22:38:01 10° E visible
19 Jul - 00:17:17 10° W 00:34:42 62° SSW 00:47:28 10° SE visible
19 Jul - 02:32:32 10° W 02:44:24 27° SW 02:53:12 10° S visible
19 Jul - 15:56:59 10° S 16:05:10 22° SE 16:15:42 10° E daylight
19 Jul - 18:01:50 10° SW 18:14:35 56° SSE 18:31:41 10° E daylight
19 Jul - 20:11:00 10° WSW 20:26:56 82° S 20:44:45 10° E visible
19 Jul - 22:22:37 10° W 22:40:31 80° S 22:56:12 10° ESE visible
20 Jul - 00:35:49 10° W 00:52:38 53° SSW 01:05:04 10° SE visible
20 Jul - 02:52:25 10° W 03:01:47 19° SW 03:09:15 10° S visible
20 Jul - 16:13:19 10° SSW 16:22:35 30° SE 16:35:17 10° E daylight
20 Jul - 18:19:30 10° SW 18:32:35 65° SSE 18:50:11 10° E daylight
20 Jul - 20:29:13 10° W 20:45:22 84° S 21:03:07 10° E visible
20 Jul - 22:41:00 10° W 22:58:51 75° SSW 23:14:17 10° ESE visible
21 Jul - 00:54:29 10° W 01:10:26 44° SW 01:22:25 10° SSE visible
21 Jul - 03:13:55 10° WSW 03:19:08 13° SW 03:23:44 10° SSW visible
21 Jul - 16:30:12 10° SSW 16:40:07 38° SE 16:54:21 10° E daylight
21 Jul - 18:37:23 10° WSW 18:50:44 73° SSE 19:08:40 10° E daylight
21 Jul - 20:47:29 10° W 21:03:50 84° S 21:21:28 10° E visible
21 Jul - 22:59:24 10° W 23:17:06 68° SSW 23:32:15 10° ESE visible
22 Jul - 01:13:22 10° W 01:28:05 35° SW 01:39:27 10° SSE visible
22 Jul - 14:45:01 10° SSE 14:49:37 14° SE 14:55:07 10° ESE daylight
22 Jul - 16:47:26 10° SW 16:57:47 48° SE 17:13:07 10° E daylight
22 Jul - 18:55:23 10° WSW 19:08:59 79° SSE 19:27:07 10° E daylight
22 Jul - 21:05:47 10° W 21:22:18 83° S 21:39:47 10° ESE visible
22 Jul - 23:17:49 10° W 23:35:12 60° SSW 23:50:00 10° SE visible
23 Jul - 01:32:39 10° W 01:45:37 27° SW 01:56:02 10° S visible
23 Jul - 15:00:20 10° S 15:06:56 21° SE 15:15:45 10° E daylight
23 Jul - 17:04:57 10° SW 17:15:38 57° SSE 17:31:43 10° E daylight
23 Jul - 19:13:29 10° WSW 19:27:21 83° S 19:45:33 10° E daylight
23 Jul - 21:24:05 10° W 21:40:42 79° SSW 21:58:01 10° ESE visible
23 Jul - 23:36:20 10° W 23:53:10 51° SSW 00:07:32 10° SE visible
24 Jul - 01:52:39 10° W 02:03:06 20° SW 02:11:54 10° S visible
24 Jul - 15:16:47 10° SSW 15:24:20 29° SE 15:35:14 10° E daylight
24 Jul - 17:22:41 10° WSW 17:33:36 66° SSE 17:50:15 10° E daylight
24 Jul - 19:31:40 10° W 19:45:46 84° S 20:04:01 10° E daylight
24 Jul - 21:42:23 10° W 21:59:02 73° SSW 22:16:06 10° ESE visible
24 Jul - 23:55:00 10° W 00:11:01 43° SW 00:24:48 10° SSE visible
25 Jul - 02:14:22 10° WSW 02:20:33 13° SW 02:26:09 10° SSW visible
25 Jul - 15:33:45 10° SSW 15:41:51 38° SE 15:54:14 10° E daylight
25 Jul - 17:40:34 10° WSW 17:51:44 74° SSE 18:08:45 10° E daylight
25 Jul - 19:49:52 10° W 20:04:12 84° S 20:22:26 10° E daylight
25 Jul - 22:00:43 10° W 22:17:16 65° SSW 22:34:01 10° SE visible
26 Jul - 00:13:54 10° W 00:28:45 34° SW 00:41:41 10° SSE visible
26 Jul - 13:49:05 10° SSE 13:51:57 12° SE 13:55:15 10° ESE daylight
26 Jul - 15:51:05 10° SW 15:59:31 47° SSE 16:12:58 10° E daylight
26 Jul - 17:58:34 10° WSW 18:09:58 80° S 18:27:15 10° E daylight
26 Jul - 20:08:04 10° W 20:22:37 81° S 20:40:46 10° ESE visible
26 Jul - 22:19:05 10° W 22:35:24 57° SSW 22:51:44 10° SE visible
27 Jul - 00:33:17 10° W 00:46:24 26° SW 00:58:04 10° S visible
27 Jul - 14:04:13 10° S 14:09:17 19° SE 14:16:03 10° E daylight
27 Jul - 16:08:39 10° SW 16:17:21 57° SSE 16:31:34 10° E daylight
27 Jul - 18:16:39 10° W 18:28:18 83° S 18:45:45 10° E daylight
27 Jul - 20:26:18 10° W 20:40:59 76° SSW 20:59:02 10° ESE visible
27 Jul - 22:37:34 10° W 22:53:25 48° SSW 23:09:11 10° SE visible
